Time,TemperatureF,DewpointF,PressureIn,WindDirection,WindDirectionDegrees,WindSpeedMPH,WindSpeedGustMPH,Humidity,HourlyPrecipIn,Conditions,Clouds,dailyrainin,SoftwareType,DateUTC
2013-10-06 00:01:00,64.0,42.3,30.05,NNE,19,6.0,16.0,45,0.00,,BKN100,0.00,VWS V14.01,2013-10-06 05:01:00,
2013-10-06 00:06:00,64.0,42.3,30.05,NW,313,7.0,9.0,45,0.00,,BKN100,0.00,VWS V14.01,2013-10-06 05:06:00,
2013-10-06 00:11:00,64.0,42.3,30.05,North,355,12.0,14.0,45,0.00,,BKN100,0.00,VWS V14.01,2013-10-06 05:11:00,
2013-10-06 00:16:00,64.0,42.3,30.05,NNW,338,4.0,10.0,45,0.00,,BKN100,0.00,VWS V14.01,2013-10-06 05:16:00,
2013-10-06 00:21:00,64.0,42.3,30.04,NW,322,13.0,14.0,45,0.00,,BKN100,0.00,VWS V14.01,2013-10-06 05:21:00,
2013-10-06 00:26:00,64.0,42.3,30.04,NNW,331,11.0,13.0,45,0.00,,BKN100,0.00,VWS V14.01,2013-10-06 05:26:00,
2013-10-06 00:31:00,63.9,42.2,30.04,NNW,346,10.0,14.0,45,0.00,,BKN100,0.00,VWS V14.01,2013-10-06 05:31:00,
2013-10-06 00:36:00,64.0,42.3,30.04,NNW,332,8.0,9.0,45,0.00,,BKN100,0.00,VWS V14.01,2013-10-06 05:36:00,
2013-10-06 00:41:00,64.0,41.7,30.04,NNW,336,6.0,13.0,44,0.00,,BKN100,0.00,VWS V14.01,2013-10-06 05:41:00,
2013-10-06 00:46:00,63.9,41.6,30.04,NNE,18,7.0,8.0,44,0.00,,BKN100,0.00,VWS V14.01,2013-10-06 05:46:00,
2013-10-06 00:51:00,64.0,41.7,30.04,NNE,20,9.0,12.0,44,0.00,,BKN100,0.00,VWS V14.01,2013-10-06 05:51:00,
2013-10-06 00:56:00,63.9,41.6,30.04,NNW,347,8.0,10.0,44,0.00,,BKN100,0.00,VWS V14.01,2013-10-06 05:56:00,
2013-10-06 01:01:00,63.9,41.6,30.04,NNE,17,7.0,13.0,44,0.00,,BKN100,0.00,VWS V14.01,2013-10-06 06:01:00,
2013-10-06 01:06:00,63.9,41.6,30.05,NNW,338,6.0,14.0,44,0.00,,BKN100,0.00,VWS V14.01,2013-10-06 06:06:00,
2013-10-06 01:11:00,63.9,41.6,30.05,North,355,10.0,14.0,44,0.00,,BKN100,0.00,VWS V14.01,2013-10-06 06:11:00,
2013-10-06 01:16:00,63.9,42.2,30.05,NNW,342,6.0,12.0,45,0.00,,BKN100,0.00,VWS V14.01,2013-10-06 06:16:00,
2013-10-06 01:21:00,63.7,42.0,30.05,NNW,336,2.0,12.0,45,0.00,,BKN100,0.00,VWS V14.01,2013-10-06 06:21:00,
2013-10-06 01:26:00,63.9,42.2,30.05,North,5,4.0,7.0,45,0.00,,BKN100,0.00,VWS V14.01,2013-10-06 06:26:00,
2013-10-06 01:31:00,63.9,42.2,30.05,NNW,342,9.0,13.0,45,0.00,,BKN100,0.00,VWS V14.01,2013-10-06 06:31:00,
2013-10-06 01:36:00,64.0,42.8,30.06,North,5,6.0,11.0,46,0.00,,BKN100,0.00,VWS V14.01,2013-10-06 06:36:00,
2013-10-06 01:41:00,64.0,42.8,30.06,North,355,5.0,11.0,46,0.00,,BKN100,0.00,VWS V14.01,2013-10-06 06:41:00,
2013-10-06 01:46:00,64.0,43.4,30.06,NNW,327,4.0,6.0,47,0.00,,BKN100,0.00,VWS V14.01,2013-10-06 06:46:00,
2013-10-06 01:51:00,64.2,43.6,30.07,NW,320,5.0,7.0,47,0.00,,BKN100,0.00,VWS V14.01,2013-10-06 06:51:00,
2013-10-06 01:56:00,64.2,44.1,30.07,NNW,344,10.0,12.0,48,0.00,,BKN050,0.00,VWS V14.01,2013-10-06 06:56:00,
2013-10-06 02:01:00,64.2,44.7,30.07,NNW,335,4.0,12.0,49,0.00,,BKN050,0.00,VWS V14.01,2013-10-06 07:01:00,
2013-10-06 02:06:00,64.2,45.2,30.07,NNW,348,12.0,14.0,50,0.00,,BKN050,0.00,VWS V14.01,2013-10-06 07:06:00,
2013-10-06 02:11:00,64.0,45.5,30.07,NW,322,7.0,14.0,51,0.00,,BKN050,0.00,VWS V14.01,2013-10-06 07:11:00,
2013-10-06 02:16:00,64.0,45.5,30.07,North,355,10.0,14.0,51,0.00,,BKN050,0.00,VWS V14.01,2013-10-06 07:16:00,
2013-10-06 02:21:00,64.0,46.0,30.06,NW,317,6.0,14.0,52,0.00,,BKN050,0.00,VWS V14.01,2013-10-06 07:21:00,
2013-10-06 02:26:00,64.0,46.0,30.06,NNW,347,5.0,10.0,52,0.00,,BKN050,0.00,VWS V14.01,2013-10-06 07:26:00,
2013-10-06 02:31:00,64.0,46.5,30.06,NE,53,5.0,10.0,53,0.00,,BKN050,0.00,VWS V14.01,2013-10-06 07:31:00,
2013-10-06 02:36:00,63.9,46.5,30.06,NNW,335,5.0,11.0,53,0.00,,BKN050,0.00,VWS V14.01,2013-10-06 07:36:00,
2013-10-06 02:41:00,63.9,46.5,30.06,North,350,6.0,14.0,53,0.00,,BKN050,0.00,VWS V14.01,2013-10-06 07:41:00,
2013-10-06 02:46:00,63.9,46.5,30.06,NNW,340,12.0,12.0,53,0.00,,BKN050,0.00,VWS V14.01,2013-10-06 07:46:00,
2013-10-06 02:51:00,63.9,46.5,30.07,NNW,344,14.0,16.0,53,0.00,,BKN050,0.00,VWS V14.01,2013-10-06 07:51:00,
2013-10-06 02:56:00,63.9,47.0,30.07,NNW,334,4.0,8.0,54,0.00,,OVC048,0.00,VWS V14.01,2013-10-06 07:56:00,
2013-10-06 03:01:00,64.0,46.5,30.07,NW,317,11.0,14.0,53,0.00,,OVC048,0.00,VWS V14.01,2013-10-06 08:01:00,
2013-10-06 03:06:00,64.2,46.7,30.08,North,355,6.0,16.0,53,0.00,,OVC048,0.00,VWS V14.01,2013-10-06 08:06:00,
2013-10-06 03:11:00,64.2,47.2,30.08,NNW,347,16.0,16.0,54,0.00,,OVC048,0.00,VWS V14.01,2013-10-06 08:11:00,
2013-10-06 03:16:00,64.2,46.7,30.08,NW,323,12.0,14.0,53,0.00,,OVC048,0.00,VWS V14.01,2013-10-06 08:16:00,
2013-10-06 03:21:00,64.2,46.7,30.07,NNW,347,11.0,16.0,53,0.00,,OVC048,0.00,VWS V14.01,2013-10-06 08:21:00,
2013-10-06 03:26:00,64.2,46.7,30.07,WNW,298,14.0,17.0,53,0.00,,OVC048,0.00,VWS V14.01,2013-10-06 08:26:00,
2013-10-06 03:31:00,64.2,46.7,30.07,NNW,347,7.0,17.0,53,0.00,,OVC048,0.00,VWS V14.01,2013-10-06 08:31:00,
2013-10-06 03:36:00,64.3,46.8,30.07,North,360,6.0,13.0,53,0.00,,OVC048,0.00,VWS V14.01,2013-10-06 08:36:00,
2013-10-06 03:41:00,64.3,46.8,30.07,NNW,348,11.0,16.0,53,0.00,,OVC048,0.00,VWS V14.01,2013-10-06 08:41:00,
2013-10-06 03:46:00,64.2,46.2,30.07,NW,323,15.0,21.0,52,0.00,,OVC048,0.00,VWS V14.01,2013-10-06 08:46:00,
2013-10-06 03:51:00,64.0,46.5,30.07,NW,326,7.0,21.0,53,0.00,,OVC048,0.00,VWS V14.01,2013-10-06 08:51:00,
2013-10-06 03:56:00,63.9,46.5,30.07,NNW,331,13.0,15.0,53,0.00,,-RA,0.00,VWS V14.01,2013-10-06 08:56:00,
2013-10-06 04:01:00,63.7,46.8,30.07,NNW,344,17.0,17.0,54,0.00,,-RA,0.00,VWS V14.01,2013-10-06 09:01:00,
2013-10-06 04:06:00,63.2,47.3,30.07,NW,318,9.0,16.0,56,0.00,,-RA,0.00,VWS V14.01,2013-10-06 09:06:00,
2013-10-06 04:09:00,62.9,47.5,30.07,NNW,344,15.0,19.0,57,0.00,,-RA,0.00,VWS V14.01,2013-10-06 09:09:00,
2013-10-06 04:14:00,62.1,47.6,30.07,NNW,340,9.0,19.0,59,0.00,,-RA,0.00,VWS V14.01,2013-10-06 09:14:00,
2013-10-06 04:19:00,61.3,48.2,30.08,North,355,13.0,18.0,62,0.00,,-RA,0.00,VWS V14.01,2013-10-06 09:19:00,
2013-10-06 04:24:00,60.9,49.5,30.08,North,360,13.0,18.0,66,0.00,,-RA,0.00,VWS V14.01,2013-10-06 09:24:00,
2013-10-06 04:29:00,59.3,49.9,30.08,NNW,336,11.0,22.0,71,0.00,,-RA,0.00,VWS V14.01,2013-10-06 09:29:00,
2013-10-06 04:34:00,58.4,50.9,30.12,West,274,12.0,22.0,76,0.00,,-RA,0.00,VWS V14.01,2013-10-06 09:34:00,
2013-10-06 04:39:00,57.8,51.7,30.12,NNW,344,20.0,23.0,80,0.00,,-RA,0.00,VWS V14.01,2013-10-06 09:39:00,
2013-10-06 04:44:00,56.6,51.5,30.12,North,349,7.0,23.0,83,0.03,,-RA,0.03,VWS V14.01,2013-10-06 09:44:00,
2013-10-06 04:49:00,55.9,51.5,30.10,NNW,348,9.0,16.0,85,0.05,,-RA,0.05,VWS V14.01,2013-10-06 09:49:00,
2013-10-06 04:54:00,55.4,51.6,30.10,NNW,345,12.0,19.0,87,0.05,,-RA,0.05,VWS V14.01,2013-10-06 09:54:00,
2013-10-06 04:59:00,55.3,51.5,30.10,NNW,346,13.0,19.0,87,0.05,,RA,0.05,VWS V14.01,2013-10-06 09:59:00,
2013-10-06 05:04:00,55.1,51.3,30.12,NNW,340,6.0,19.0,87,0.05,,RA,0.05,VWS V14.01,2013-10-06 10:04:00,
2013-10-06 05:09:00,55.1,51.3,30.12,NW,319,7.0,14.0,87,0.08,,RA,0.08,VWS V14.01,2013-10-06 10:09:00,
2013-10-06 05:14:00,54.8,51.0,30.12,North,355,9.0,14.0,87,0.12,,RA,0.12,VWS V14.01,2013-10-06 10:14:00,
2013-10-06 05:19:00,54.5,50.7,30.12,North,5,6.0,11.0,87,0.13,,RA,0.13,VWS V14.01,2013-10-06 10:19:00,
2013-10-06 05:24:00,54.5,50.7,30.12,NW,322,6.0,12.0,87,0.13,,RA,0.13,VWS V14.01,2013-10-06 10:24:00,
2013-10-06 05:29:00,54.8,51.0,30.12,NW,309,6.0,10.0,87,0.13,,RA,0.13,VWS V14.01,2013-10-06 10:29:00,
2013-10-06 05:34:00,54.7,51.2,30.12,NNW,348,7.0,11.0,88,0.13,,RA,0.13,VWS V14.01,2013-10-06 10:34:00,
2013-10-06 05:39:00,54.7,51.2,30.12,WNW,292,9.0,10.0,88,0.14,,RA,0.14,VWS V14.01,2013-10-06 10:39:00,
2013-10-06 05:44:00,54.4,50.9,30.12,North,360,5.0,12.0,88,0.14,,RA,0.14,VWS V14.01,2013-10-06 10:44:00,
2013-10-06 05:49:00,54.4,51.2,30.12,NW,324,7.0,11.0,89,0.10,,RA,0.14,VWS V14.01,2013-10-06 10:49:00,
2013-10-06 05:54:00,54.4,51.2,30.12,NNE,13,4.0,11.0,89,0.11,,RA,0.15,VWS V14.01,2013-10-06 10:54:00,
2013-10-06 05:59:00,54.4,51.2,30.12,NNW,342,8.0,8.0,89,0.10,,RA,0.15,VWS V14.01,2013-10-06 10:59:00,
2013-10-06 06:04:00,54.4,51.5,30.11,North,349,3.0,9.0,90,0.11,,RA,0.16,VWS V14.01,2013-10-06 11:04:00,
2013-10-06 06:09:00,54.4,51.5,30.11,North,355,5.0,11.0,90,0.11,,RA,0.16,VWS V14.01,2013-10-06 11:09:00,
2013-10-06 06:14:00,54.5,51.6,30.11,NNW,344,5.0,11.0,90,0.11,,RA,0.16,VWS V14.01,2013-10-06 11:14:00,
2013-10-06 06:19:00,54.4,51.5,30.12,NNE,30,1.0,7.0,90,0.03,,RA,0.16,VWS V14.01,2013-10-06 11:19:00,
2013-10-06 06:24:00,54.5,51.6,30.12,NNE,18,0.0,7.0,90,0.03,,RA,0.16,VWS V14.01,2013-10-06 11:24:00,
2013-10-06 06:29:00,54.7,51.8,30.12,NNE,28,3.0,9.0,90,0.03,,RA,0.16,VWS V14.01,2013-10-06 11:29:00,
2013-10-06 06:34:00,54.8,51.9,30.12,NNW,344,4.0,9.0,90,0.03,,RA,0.16,VWS V14.01,2013-10-06 11:34:00,
2013-10-06 06:39:00,54.8,51.6,30.12,NW,321,7.0,7.0,89,0.03,,RA,0.16,VWS V14.01,2013-10-06 11:39:00,
2013-10-06 06:44:00,55.0,51.5,30.12,NW,314,5.0,14.0,88,0.03,,RA,0.16,VWS V14.01,2013-10-06 11:44:00,
2013-10-06 06:49:00,55.1,51.6,30.12,ENE,71,0.0,5.0,88,0.02,,RA,0.16,VWS V14.01,2013-10-06 11:49:00,
2013-10-06 06:54:00,55.0,51.5,30.12,North,355,3.0,6.0,88,0.02,,RA,0.16,VWS V14.01,2013-10-06 11:54:00,
2013-10-06 06:59:00,55.3,51.8,30.12,NNW,346,4.0,5.0,88,0.01,,SCT060,0.16,VWS V14.01,2013-10-06 11:59:00,
2013-10-06 07:04:00,55.3,51.8,30.13,NNW,346,2.0,6.0,88,0.01,,SCT060,0.16,VWS V14.01,2013-10-06 12:04:00,
2013-10-06 07:09:00,55.3,51.5,30.13,NNW,345,2.0,6.0,87,0.00,,SCT060,0.16,VWS V14.01,2013-10-06 12:09:00,
2013-10-06 07:14:00,55.4,51.6,30.13,North,355,0.0,6.0,87,0.00,,SCT060,0.16,VWS V14.01,2013-10-06 12:14:00,
2013-10-06 07:19:00,55.6,51.5,30.14,NNW,341,3.0,5.0,86,0.00,,SCT060,0.16,VWS V14.01,2013-10-06 12:19:00,
2013-10-06 07:24:00,55.7,51.6,30.14,North,360,3.0,5.0,86,0.00,,SCT060,0.16,VWS V14.01,2013-10-06 12:24:00,
2013-10-06 07:29:00,55.9,51.8,30.14,North,5,6.0,8.0,86,0.00,,SCT060,0.16,VWS V14.01,2013-10-06 12:29:00,
2013-10-06 07:34:00,56.0,51.9,30.14,NNW,333,0.0,8.0,86,0.00,,SCT060,0.16,VWS V14.01,2013-10-06 12:34:00,
2013-10-06 07:39:00,56.0,51.9,30.14,NNW,333,2.0,3.0,86,0.00,,SCT060,0.16,VWS V14.01,2013-10-06 12:39:00,
2013-10-06 07:44:00,56.5,52.4,30.14,NW,324,3.0,4.0,86,0.00,,SCT060,0.16,VWS V14.01,2013-10-06 12:44:00,
2013-10-06 07:49:00,56.5,52.4,30.15,NW,306,1.0,4.0,86,0.00,,SCT060,0.16,VWS V14.01,2013-10-06 12:49:00,
2013-10-06 07:54:00,56.6,52.5,30.15,NW,317,2.0,4.0,86,0.00,,SCT060,0.16,VWS V14.01,2013-10-06 12:54:00,
2013-10-06 07:59:00,56.7,52.6,30.15,NNW,346,2.0,5.0,86,0.00,,BKN060,0.16,VWS V14.01,2013-10-06 12:59:00,
2013-10-06 08:04:00,56.9,52.4,30.14,North,355,3.0,7.0,85,0.00,,BKN060,0.16,VWS V14.01,2013-10-06 13:04:00,
2013-10-06 08:09:00,57.0,52.5,30.14,NNW,342,3.0,6.0,85,0.00,,BKN060,0.16,VWS V14.01,2013-10-06 13:09:00,
2013-10-06 08:14:00,57.2,52.4,30.14,NW,306,3.0,6.0,84,0.00,,BKN060,0.16,VWS V14.01,2013-10-06 13:14:00,
2013-10-06 08:19:00,57.5,52.4,30.14,North,360,3.0,5.0,83,0.00,,BKN060,0.16,VWS V14.01,2013-10-06 13:19:00,
2013-10-06 08:24:00,57.6,52.2,30.14,NW,316,4.0,5.0,82,0.00,,BKN060,0.16,VWS V14.01,2013-10-06 13:24:00,
2013-10-06 08:29:00,57.8,52.3,30.14,NW,316,4.0,5.0,82,0.00,,BKN060,0.16,VWS V14.01,2013-10-06 13:29:00,
2013-10-06 08:34:00,57.8,51.7,30.15,NW,316,4.0,9.0,80,0.00,,BKN060,0.16,VWS V14.01,2013-10-06 13:34:00,
2013-10-06 08:39:00,57.8,51.7,30.15,NNE,18,4.0,6.0,80,0.00,,BKN060,0.16,VWS V14.01,2013-10-06 13:39:00,
2013-10-06 08:44:00,58.0,51.9,30.15,North,11,4.0,10.0,80,0.00,,BKN060,0.16,VWS V14.01,2013-10-06 13:44:00,
2013-10-06 08:49:00,57.8,51.3,30.14,NNW,342,4.0,11.0,79,0.00,,BKN060,0.16,VWS V14.01,2013-10-06 13:49:00,
2013-10-06 08:54:00,57.8,51.3,30.14,NNE,15,3.0,11.0,79,0.00,,BKN060,0.16,VWS V14.01,2013-10-06 13:54:00,
2013-10-06 08:59:00,57.8,51.7,30.14,North,355,3.0,7.0,80,0.00,,CLR,0.16,VWS V14.01,2013-10-06 13:59:00,
2013-10-06 09:04:00,57.8,51.7,30.14,North,355,4.0,7.0,80,0.00,,CLR,0.16,VWS V14.01,2013-10-06 14:04:00,
2013-10-06 09:09:00,58.1,51.6,30.14,NW,322,4.0,6.0,79,0.00,,CLR,0.16,VWS V14.01,2013-10-06 14:09:00,
2013-10-06 09:14:00,58.6,51.8,30.14,NW,309,5.0,10.0,78,0.00,,CLR,0.16,VWS V14.01,2013-10-06 14:14:00,
2013-10-06 09:19:00,59.2,52.0,30.15,NNE,21,4.0,11.0,77,0.00,,CLR,0.16,VWS V14.01,2013-10-06 14:19:00,
2013-10-06 09:24:00,59.6,52.4,30.15,NNW,336,3.0,11.0,77,0.00,,CLR,0.16,VWS V14.01,2013-10-06 14:24:00,
2013-10-06 09:29:00,60.2,52.6,30.15,NNW,348,7.0,10.0,76,0.00,,CLR,0.16,VWS V14.01,2013-10-06 14:29:00,
2013-10-06 09:34:00,60.5,52.2,30.15,NNW,334,6.0,11.0,74,0.00,,CLR,0.16,VWS V14.01,2013-10-06 14:34:00,
2013-10-06 09:39:00,61.0,52.7,30.15,NNW,345,5.0,11.0,74,0.00,,CLR,0.16,VWS V14.01,2013-10-06 14:39:00,
2013-10-06 09:44:00,61.5,52.4,30.15,NW,319,5.0,12.0,72,0.00,,CLR,0.16,VWS V14.01,2013-10-06 14:44:00,
2013-10-06 09:49:00,62.0,52.1,30.16,NNW,345,9.0,14.0,70,0.00,,CLR,0.16,VWS V14.01,2013-10-06 14:49:00,
2013-10-06 09:54:00,62.4,52.1,30.16,NW,313,9.0,14.0,69,0.00,,CLR,0.16,VWS V14.01,2013-10-06 14:54:00,
2013-10-06 09:59:00,62.9,51.4,30.16,NNE,15,3.0,12.0,66,0.00,,CLR,0.16,VWS V14.01,2013-10-06 14:59:00,
2013-10-06 10:04:00,63.2,51.2,30.16,NNW,336,6.0,12.0,65,0.00,,CLR,0.16,VWS V14.01,2013-10-06 15:04:00,
2013-10-06 10:09:00,63.4,51.4,30.16,NNW,330,9.0,12.0,65,0.00,,CLR,0.16,VWS V14.01,2013-10-06 15:09:00,
2013-10-06 10:14:00,64.0,51.2,30.16,North,355,4.0,12.0,63,0.00,,CLR,0.16,VWS V14.01,2013-10-06 15:14:00,
2013-10-06 10:19:00,64.5,50.8,30.16,NNW,348,3.0,10.0,61,0.00,,CLR,0.16,VWS V14.01,2013-10-06 15:19:00,
2013-10-06 10:24:00,65.0,49.9,30.16,NE,49,4.0,10.0,58,0.00,,CLR,0.16,VWS V14.01,2013-10-06 15:24:00,
2013-10-06 10:29:00,65.3,49.7,30.16,North,355,9.0,14.0,57,0.00,,CLR,0.16,VWS V14.01,2013-10-06 15:29:00,
2013-10-06 10:34:00,65.6,50.4,30.17,NNW,334,6.0,14.0,58,0.00,,CLR,0.16,VWS V14.01,2013-10-06 15:34:00,
2013-10-06 10:39:00,65.8,49.2,30.17,NW,312,7.0,13.0,55,0.00,,CLR,0.16,VWS V14.01,2013-10-06 15:39:00,
2013-10-06 10:44:00,66.1,49.5,30.17,NE,53,3.0,13.0,55,0.00,,CLR,0.16,VWS V14.01,2013-10-06 15:44:00,
2013-10-06 10:49:00,66.8,50.1,30.17,NW,318,6.0,13.0,55,0.00,,CLR,0.16,VWS V14.01,2013-10-06 15:49:00,
2013-10-06 10:54:00,67.1,48.9,30.17,NNE,28,8.0,13.0,52,0.00,,CLR,0.16,VWS V14.01,2013-10-06 15:54:00,
2013-10-06 10:59:00,67.4,48.7,30.17,NNE,16,4.0,12.0,51,0.00,,CLR,0.16,VWS V14.01,2013-10-06 15:59:00,
2013-10-06 11:04:00,67.8,49.5,30.17,NNE,33,7.0,12.0,52,0.00,,CLR,0.16,VWS V14.01,2013-10-06 16:04:00,
2013-10-06 11:09:00,67.8,49.0,30.17,NNW,338,5.0,14.0,51,0.00,,CLR,0.16,VWS V14.01,2013-10-06 16:09:00,
2013-10-06 11:14:00,68.3,49.0,30.17,NNW,338,5.0,14.0,50,0.00,,CLR,0.16,VWS V14.01,2013-10-06 16:14:00,
2013-10-06 11:19:00,68.6,49.2,30.17,NE,38,6.0,12.0,50,0.00,,CLR,0.16,VWS V14.01,2013-10-06 16:19:00,
2013-10-06 11:24:00,68.6,49.2,30.17,NE,38,6.0,12.0,50,0.00,,CLR,0.16,VWS V14.01,2013-10-06 16:24:00,
2013-10-06 11:29:00,69.9,48.8,30.17,North,355,14.0,14.0,47,0.00,,CLR,0.16,VWS V14.01,2013-10-06 16:29:00,
2013-10-06 11:34:00,69.6,46.8,30.17,NNW,340,10.0,15.0,44,0.00,,CLR,0.16,VWS V14.01,2013-10-06 16:34:00,
2013-10-06 11:39:00,69.6,46.8,30.17,North,5,5.0,12.0,44,0.00,,CLR,0.16,VWS V14.01,2013-10-06 16:39:00,
2013-10-06 11:44:00,69.8,46.9,30.17,NNW,347,11.0,13.0,44,0.00,,CLR,0.16,VWS V14.01,2013-10-06 16:44:00,
2013-10-06 11:49:00,69.9,47.0,30.17,NW,321,4.0,12.0,44,0.00,,CLR,0.16,VWS V14.01,2013-10-06 16:49:00,
2013-10-06 11:54:00,70.3,48.6,30.17,NW,321,0.0,12.0,46,0.00,,CLR,0.16,VWS V14.01,2013-10-06 16:54:00,
2013-10-06 11:59:00,70.8,45.3,30.17,NW,315,9.0,15.0,40,0.00,,CLR,0.16,VWS V14.01,2013-10-06 16:59:00,
2013-10-06 12:04:00,70.9,46.7,30.17,NNE,13,5.0,15.0,42,0.00,,CLR,0.16,VWS V14.01,2013-10-06 17:04:00,
2013-10-06 12:09:00,71.5,47.8,30.17,NNW,338,6.0,8.0,43,0.00,,CLR,0.16,VWS V14.01,2013-10-06 17:09:00,
2013-10-06 12:14:00,72.1,45.8,30.17,NNW,344,5.0,10.0,39,0.00,,CLR,0.16,VWS V14.01,2013-10-06 17:14:00,
2013-10-06 12:19:00,72.3,42.4,30.17,NNW,344,6.0,16.0,34,0.00,,CLR,0.16,VWS V14.01,2013-10-06 17:19:00,
2013-10-06 12:24:00,72.5,41.0,30.17,North,355,12.0,16.0,32,0.00,,CLR,0.16,VWS V14.01,2013-10-06 17:24:00,
2013-10-06 12:29:00,72.7,41.2,30.17,NNW,333,14.0,15.0,32,0.00,,CLR,0.16,VWS V14.01,2013-10-06 17:29:00,
2013-10-06 12:34:00,72.7,42.7,30.16,North,355,6.0,15.0,34,0.00,,CLR,0.16,VWS V14.01,2013-10-06 17:34:00,
2013-10-06 12:39:00,73.3,43.3,30.16,WNW,303,8.0,15.0,34,0.00,,CLR,0.16,VWS V14.01,2013-10-06 17:39:00,
2013-10-06 12:44:00,73.5,42.7,30.16,North,355,8.0,15.0,33,0.00,,CLR,0.16,VWS V14.01,2013-10-06 17:44:00,
2013-10-06 12:49:00,74.0,40.6,30.16,North,5,6.0,13.0,30,0.00,,CLR,0.16,VWS V14.01,2013-10-06 17:49:00,
2013-10-06 12:54:00,74.0,40.6,30.16,NNW,337,6.0,13.0,30,0.00,,CLR,0.16,VWS V14.01,2013-10-06 17:54:00,
2013-10-06 12:58:00,74.0,40.6,30.16,North,350,9.0,15.0,30,0.00,,CLR,0.16,VWS V14.01,2013-10-06 17:58:00,
2013-10-06 13:03:00,74.7,40.4,30.15,NNE,26,4.0,15.0,29,0.00,,CLR,0.16,VWS V14.01,2013-10-06 18:03:00,
2013-10-06 13:08:00,74.9,44.7,30.15,North,355,14.0,16.0,34,0.00,,CLR,0.16,VWS V14.01,2013-10-06 18:08:00,
2013-10-06 13:13:00,74.6,40.3,30.15,NNE,19,6.0,16.0,29,0.00,,CLR,0.16,VWS V14.01,2013-10-06 18:13:00,
2013-10-06 13:18:00,74.9,40.5,30.14,NW,309,10.0,13.0,29,0.00,,CLR,0.16,VWS V14.01,2013-10-06 18:18:00,
2013-10-06 13:23:00,75.6,40.2,30.14,NW,304,12.0,17.0,28,0.00,,CLR,0.16,VWS V14.01,2013-10-06 18:23:00,
2013-10-06 13:28:00,75.6,37.3,30.14,NNW,331,8.0,20.0,25,0.00,,CLR,0.16,VWS V14.01,2013-10-06 18:28:00,
2013-10-06 13:33:00,75.4,38.2,30.14,North,9,9.0,20.0,26,0.00,,CLR,0.16,VWS V14.01,2013-10-06 18:33:00,
2013-10-06 13:38:00,75.8,37.5,30.14,North,5,13.0,20.0,25,0.00,,CLR,0.16,VWS V14.01,2013-10-06 18:38:00,
2013-10-06 13:43:00,75.8,38.5,30.14,NE,50,5.0,20.0,26,0.00,,CLR,0.16,VWS V14.01,2013-10-06 18:43:00,
2013-10-06 13:48:00,75.4,37.2,30.14,NNE,21,8.0,18.0,25,0.00,,CLR,0.16,VWS V14.01,2013-10-06 18:48:00,
2013-10-06 13:53:00,75.8,39.5,30.14,NNE,15,16.0,18.0,27,0.00,,CLR,0.16,VWS V14.01,2013-10-06 18:53:00,
2013-10-06 13:58:00,75.6,40.2,30.14,North,5,9.0,12.0,28,0.00,,CLR,0.16,VWS V14.01,2013-10-06 18:58:00,
2013-10-06 14:03:00,75.8,39.5,30.14,NNE,18,8.0,12.0,27,0.00,,CLR,0.16,VWS V14.01,2013-10-06 19:03:00,
2013-10-06 14:08:00,76.1,39.7,30.12,NNW,339,5.0,13.0,27,0.00,,CLR,0.16,VWS V14.01,2013-10-06 19:08:00,
2013-10-06 14:13:00,76.1,40.7,30.12,NNW,347,3.0,13.0,28,0.00,,CLR,0.16,VWS V14.01,2013-10-06 19:13:00,
2013-10-06 14:18:00,76.1,41.6,30.12,NNW,334,9.0,14.0,29,0.00,,CLR,0.16,VWS V14.01,2013-10-06 19:18:00,
2013-10-06 14:23:00,76.3,40.8,30.12,North,5,7.0,14.0,28,0.00,,CLR,0.16,VWS V14.01,2013-10-06 19:23:00,
2013-10-06 14:28:00,76.7,42.1,30.12,NW,316,6.0,10.0,29,0.00,,CLR,0.16,VWS V14.01,2013-10-06 19:28:00,
2013-10-06 14:33:00,76.8,42.2,30.12,NW,311,4.0,11.0,29,0.00,,CLR,0.16,VWS V14.01,2013-10-06 19:33:00,
2013-10-06 14:38:00,76.7,42.1,30.12,NE,36,4.0,15.0,29,0.00,,CLR,0.16,VWS V14.01,2013-10-06 19:38:00,
2013-10-06 14:43:00,77.2,41.6,30.12,NW,306,8.0,15.0,28,0.00,,CLR,0.16,VWS V14.01,2013-10-06 19:43:00,
2013-10-06 14:48:00,76.8,41.3,30.12,NW,317,3.0,10.0,28,0.00,,CLR,0.16,VWS V14.01,2013-10-06 19:48:00,
2013-10-06 14:53:00,77.2,40.7,30.11,NW,319,1.0,12.0,27,0.00,,CLR,0.16,VWS V14.01,2013-10-06 19:53:00,
2013-10-06 14:58:00,77.9,42.2,30.11,NNW,331,2.0,10.0,28,0.00,,CLR,0.16,VWS V14.01,2013-10-06 19:58:00,
2013-10-06 15:03:00,77.9,42.2,30.11,NNE,19,8.0,13.0,28,0.00,,CLR,0.16,VWS V14.01,2013-10-06 20:03:00,
2013-10-06 15:08:00,77.7,41.1,30.10,West,281,12.0,12.0,27,0.00,,CLR,0.16,VWS V14.01,2013-10-06 20:08:00,
2013-10-06 15:13:00,77.7,41.1,30.10,North,355,4.0,16.0,27,0.00,,CLR,0.16,VWS V14.01,2013-10-06 20:13:00,
2013-10-06 15:18:00,78.5,40.8,30.10,NW,315,7.0,13.0,26,0.00,,CLR,0.16,VWS V14.01,2013-10-06 20:18:00,
2013-10-06 15:23:00,78.3,41.6,30.09,North,5,6.0,15.0,27,0.00,,CLR,0.16,VWS V14.01,2013-10-06 20:23:00,
2013-10-06 15:28:00,78.1,39.5,30.09,NW,309,7.0,12.0,25,0.00,,CLR,0.16,VWS V14.01,2013-10-06 20:28:00,
2013-10-06 15:33:00,78.5,40.8,30.09,NNW,342,9.0,12.0,26,0.00,,CLR,0.16,VWS V14.01,2013-10-06 20:33:00,
2013-10-06 15:38:00,78.6,40.9,30.09,NNW,342,5.0,12.0,26,0.00,,CLR,0.16,VWS V14.01,2013-10-06 20:38:00,
2013-10-06 15:43:00,78.6,39.9,30.09,NNE,16,5.0,12.0,25,0.00,,CLR,0.16,VWS V14.01,2013-10-06 20:43:00,
2013-10-06 15:48:00,78.6,39.9,30.09,North,5,3.0,12.0,25,0.00,,CLR,0.16,VWS V14.01,2013-10-06 20:48:00,
2013-10-06 15:53:00,79.0,40.2,30.09,NNW,343,5.0,12.0,25,0.00,,CLR,0.16,VWS V14.01,2013-10-06 20:53:00,
2013-10-06 15:58:00,79.2,38.2,30.09,NE,44,7.0,11.0,23,0.00,,CLR,0.16,VWS V14.01,2013-10-06 20:58:00,
2013-10-06 16:03:00,79.2,37.1,30.09,NW,323,4.0,14.0,22,0.00,,CLR,0.16,VWS V14.01,2013-10-06 21:03:00,
2013-10-06 16:08:00,79.4,36.1,30.09,NNW,327,19.0,19.0,21,0.00,,CLR,0.16,VWS V14.01,2013-10-06 21:08:00,
2013-10-06 16:13:00,79.4,36.1,30.09,WNW,301,9.0,19.0,21,0.00,,CLR,0.16,VWS V14.01,2013-10-06 21:13:00,
2013-10-06 16:18:00,79.6,37.5,30.09,North,5,7.0,11.0,22,0.00,,CLR,0.16,VWS V14.01,2013-10-06 21:18:00,
2013-10-06 16:23:00,79.9,37.7,30.09,NW,320,9.0,12.0,22,0.00,,CLR,0.16,VWS V14.01,2013-10-06 21:23:00,
2013-10-06 16:28:00,79.8,36.4,30.09,North,355,5.0,12.0,21,0.00,,CLR,0.16,VWS V14.01,2013-10-06 21:28:00,
2013-10-06 16:33:00,79.8,37.6,30.09,North,5,2.0,12.0,22,0.00,,CLR,0.16,VWS V14.01,2013-10-06 21:33:00,
2013-10-06 16:38:00,79.9,35.3,30.09,NNW,348,5.0,13.0,20,0.00,,CLR,0.16,VWS V14.01,2013-10-06 21:38:00,
2013-10-06 16:43:00,79.8,36.4,30.09,NNW,344,4.0,13.0,21,0.00,,CLR,0.16,VWS V14.01,2013-10-06 21:43:00,
2013-10-06 16:48:00,79.9,36.5,30.09,NNE,30,6.0,12.0,21,0.00,,CLR,0.16,VWS V14.01,2013-10-06 21:48:00,
2013-10-06 16:53:00,79.9,35.3,30.09,North,350,6.0,12.0,20,0.00,,CLR,0.16,VWS V14.01,2013-10-06 21:53:00,
2013-10-06 16:58:00,79.9,36.5,30.09,North,355,4.0,10.0,21,0.00,,CLR,0.16,VWS V14.01,2013-10-06 21:58:00,
2013-10-06 17:03:00,80.3,36.8,30.09,NNW,337,6.0,13.0,21,0.00,,CLR,0.16,VWS V14.01,2013-10-06 22:03:00,
2013-10-06 17:08:00,80.1,35.5,30.08,NW,321,5.0,12.0,20,0.00,,CLR,0.16,VWS V14.01,2013-10-06 22:08:00,
2013-10-06 17:13:00,79.9,36.5,30.08,NNW,340,3.0,13.0,21,0.00,,CLR,0.16,VWS V14.01,2013-10-06 22:13:00,
2013-10-06 17:18:00,80.3,35.6,30.08,WNW,302,5.0,11.0,20,0.00,,CLR,0.16,VWS V14.01,2013-10-06 22:18:00,
2013-10-06 17:23:00,80.3,36.8,30.08,North,360,7.0,11.0,21,0.00,,CLR,0.16,VWS V14.01,2013-10-06 22:23:00,
2013-10-06 17:28:00,80.1,35.5,30.08,WNW,295,9.0,14.0,20,0.00,,CLR,0.16,VWS V14.01,2013-10-06 22:28:00,
2013-10-06 17:33:00,79.9,36.5,30.08,North,360,3.0,14.0,21,0.00,,CLR,0.16,VWS V14.01,2013-10-06 22:33:00,
2013-10-06 17:38:00,80.1,36.7,30.08,NNW,343,6.0,13.0,21,0.00,,CLR,0.16,VWS V14.01,2013-10-06 22:38:00,
2013-10-06 17:43:00,80.3,36.8,30.08,NNW,327,6.0,13.0,21,0.00,,CLR,0.16,VWS V14.01,2013-10-06 22:43:00,
2013-10-06 17:48:00,80.1,35.5,30.08,North,355,8.0,11.0,20,0.00,,CLR,0.16,VWS V14.01,2013-10-06 22:48:00,
2013-10-06 17:53:00,79.9,35.3,30.08,North,5,5.0,11.0,20,0.00,,CLR,0.16,VWS V14.01,2013-10-06 22:53:00,
2013-10-06 17:58:00,79.8,35.2,30.08,NNW,343,10.0,12.0,20,0.00,,CLR,0.16,VWS V14.01,2013-10-06 22:58:00,
2013-10-06 18:03:00,79.9,35.3,30.08,North,355,3.0,12.0,20,0.00,,CLR,0.16,VWS V14.01,2013-10-06 23:03:00,
2013-10-06 18:08:00,79.9,34.0,30.09,NNW,342,7.0,11.0,19,0.00,,CLR,0.16,VWS V14.01,2013-10-06 23:08:00,
2013-10-06 18:13:00,79.8,33.9,30.09,North,5,5.0,11.0,19,0.00,,CLR,0.16,VWS V14.01,2013-10-06 23:13:00,
2013-10-06 18:18:00,79.6,35.0,30.09,NNW,335,6.0,7.0,20,0.00,,CLR,0.16,VWS V14.01,2013-10-06 23:18:00,
2013-10-06 18:23:00,79.4,36.1,30.09,NNW,344,3.0,9.0,21,0.00,,CLR,0.16,VWS V14.01,2013-10-06 23:23:00,
2013-10-06 18:28:00,78.8,35.6,30.09,North,349,6.0,6.0,21,0.00,,CLR,0.16,VWS V14.01,2013-10-06 23:28:00,
2013-10-06 18:33:00,78.6,35.4,30.09,North,355,0.0,7.0,21,0.00,,CLR,0.16,VWS V14.01,2013-10-06 23:33:00,
2013-10-06 18:38:00,78.3,36.4,30.09,North,355,0.0,0.0,22,0.00,,CLR,0.16,VWS V14.01,2013-10-06 23:38:00,
2013-10-06 18:43:00,78.1,36.2,30.09,North,360,0.0,3.0,22,0.00,,CLR,0.16,VWS V14.01,2013-10-06 23:43:00,
2013-10-06 18:48:00,77.7,37.0,30.09,North,9,0.0,2.0,23,0.00,,CLR,0.16,VWS V14.01,2013-10-06 23:48:00,
2013-10-06 18:53:00,77.4,37.8,30.10,North,5,0.0,2.0,24,0.00,,CLR,0.16,VWS V14.01,2013-10-06 23:53:00,
2013-10-06 18:58:00,77.0,37.5,30.10,North,5,0.0,0.0,24,0.00,,CLR,0.16,VWS V14.01,2013-10-06 23:58:00,
2013-10-06 19:03:00,76.7,37.2,30.10,North,5,0.0,0.0,24,0.00,,CLR,0.16,VWS V14.01,2013-10-07 00:03:00,
2013-10-06 19:08:00,76.3,37.9,30.10,North,5,0.0,0.0,25,0.00,,CLR,0.16,VWS V14.01,2013-10-07 00:08:00,
2013-10-06 19:13:00,76.0,38.7,30.10,North,5,0.0,0.0,26,0.00,,CLR,0.16,VWS V14.01,2013-10-07 00:13:00,
2013-10-06 19:18:00,75.6,39.3,30.10,North,5,0.0,0.0,27,0.00,,CLR,0.16,VWS V14.01,2013-10-07 00:18:00,
2013-10-06 19:23:00,75.1,38.9,30.11,North,5,0.0,0.0,27,0.00,,CLR,0.16,VWS V14.01,2013-10-07 00:23:00,
2013-10-06 19:28:00,74.6,40.3,30.11,North,5,0.0,0.0,29,0.00,,CLR,0.16,VWS V14.01,2013-10-07 00:28:00,
2013-10-06 19:33:00,74.0,41.5,30.11,North,5,0.0,0.0,31,0.00,,CLR,0.16,VWS V14.01,2013-10-07 00:33:00,
2013-10-06 19:38:00,73.5,42.7,30.11,North,5,0.0,0.0,33,0.00,,CLR,0.16,VWS V14.01,2013-10-07 00:38:00,
2013-10-06 19:43:00,72.7,43.5,30.11,North,5,0.0,0.0,35,0.00,,CLR,0.16,VWS V14.01,2013-10-07 00:43:00,
2013-10-06 19:48:00,72.1,43.7,30.11,North,5,0.0,0.0,36,0.00,,CLR,0.16,VWS V14.01,2013-10-07 00:48:00,
2013-10-06 19:53:00,71.6,44.0,30.11,North,5,0.0,0.0,37,0.00,,CLR,0.16,VWS V14.01,2013-10-07 00:53:00,
2013-10-06 19:58:00,70.9,44.7,30.11,North,5,0.0,0.0,39,0.00,,CLR,0.16,VWS V14.01,2013-10-07 00:58:00,
2013-10-06 20:03:00,70.6,45.1,30.11,North,5,0.0,0.0,40,0.00,,CLR,0.16,VWS V14.01,2013-10-07 01:03:00,
2013-10-06 20:08:00,70.1,44.7,30.12,North,5,0.0,0.0,40,0.00,,CLR,0.16,VWS V14.01,2013-10-07 01:08:00,
2013-10-06 20:13:00,69.6,46.1,30.12,North,5,0.0,0.0,43,0.00,,CLR,0.16,VWS V14.01,2013-10-07 01:13:00,
2013-10-06 20:18:00,69.3,45.9,30.12,North,5,0.0,0.0,43,0.00,,CLR,0.16,VWS V14.01,2013-10-07 01:18:00,
2013-10-06 20:23:00,68.8,46.0,30.12,North,5,0.0,0.0,44,0.00,,CLR,0.16,VWS V14.01,2013-10-07 01:23:00,
2013-10-06 20:28:00,68.4,45.7,30.12,North,5,0.0,0.0,44,0.00,,CLR,0.16,VWS V14.01,2013-10-07 01:28:00,
2013-10-06 20:33:00,68.1,46.0,30.12,North,5,0.0,0.0,45,0.00,,CLR,0.16,VWS V14.01,2013-10-07 01:33:00,
2013-10-06 20:38:00,67.8,46.3,30.13,North,5,0.0,0.0,46,0.00,,CLR,0.16,VWS V14.01,2013-10-07 01:38:00,
2013-10-06 20:43:00,67.6,46.7,30.13,North,5,0.0,0.0,47,0.00,,CLR,0.16,VWS V14.01,2013-10-07 01:43:00,
2013-10-06 20:48:00,67.3,47.0,30.13,North,5,0.0,0.0,48,0.00,,CLR,0.16,VWS V14.01,2013-10-07 01:48:00,
2013-10-06 20:53:00,66.9,47.1,30.13,North,5,0.0,0.0,49,0.00,,CLR,0.16,VWS V14.01,2013-10-07 01:53:00,
2013-10-06 20:58:00,66.6,47.4,30.13,North,5,0.0,0.0,50,0.00,,CLR,0.16,VWS V14.01,2013-10-07 01:58:00,
2013-10-06 21:03:00,66.4,47.7,30.13,North,5,0.0,0.0,51,0.00,,CLR,0.16,VWS V14.01,2013-10-07 02:03:00,
2013-10-06 21:08:00,66.1,48.0,30.14,North,5,0.0,0.0,52,0.00,,CLR,0.16,VWS V14.01,2013-10-07 02:08:00,
2013-10-06 21:13:00,65.8,47.2,30.14,North,5,0.0,0.0,51,0.00,,CLR,0.16,VWS V14.01,2013-10-07 02:13:00,
2013-10-06 21:18:00,65.6,47.0,30.14,North,5,0.0,0.0,51,0.00,,CLR,0.16,VWS V14.01,2013-10-07 02:18:00,
2013-10-06 21:23:00,65.3,46.7,30.14,North,5,0.0,0.0,51,0.00,,CLR,0.16,VWS V14.01,2013-10-07 02:23:00,
2013-10-06 21:28:00,65.2,47.2,30.14,North,5,0.0,0.0,52,0.00,,CLR,0.16,VWS V14.01,2013-10-07 02:28:00,
2013-10-06 21:33:00,65.0,47.5,30.14,North,5,0.0,0.0,53,0.00,,CLR,0.16,VWS V14.01,2013-10-07 02:33:00,
2013-10-06 21:38:00,65.0,47.5,30.14,North,5,0.0,0.0,53,0.00,,CLR,0.16,VWS V14.01,2013-10-07 02:38:00,
2013-10-06 21:43:00,64.8,47.3,30.14,North,5,0.0,0.0,53,0.00,,CLR,0.16,VWS V14.01,2013-10-07 02:43:00,
2013-10-06 21:48:00,64.5,47.5,30.14,North,5,0.0,0.0,54,0.00,,CLR,0.16,VWS V14.01,2013-10-07 02:48:00,
2013-10-06 21:53:00,64.3,46.8,30.15,North,5,0.0,0.0,53,0.00,,CLR,0.16,VWS V14.01,2013-10-07 02:53:00,
2013-10-06 21:58:00,64.2,46.7,30.15,North,5,0.0,0.0,53,0.00,,CLR,0.16,VWS V14.01,2013-10-07 02:58:00,
2013-10-06 22:03:00,64.2,47.2,30.15,North,5,0.0,0.0,54,0.00,,CLR,0.16,VWS V14.01,2013-10-07 03:03:00,
2013-10-06 22:08:00,64.0,47.5,30.15,North,5,0.0,0.0,55,0.00,,CLR,0.16,VWS V14.01,2013-10-07 03:08:00,
2013-10-06 22:13:00,63.9,47.9,30.15,North,5,0.0,0.0,56,0.00,,CLR,0.16,VWS V14.01,2013-10-07 03:13:00,
2013-10-06 22:18:00,63.5,48.0,30.15,North,5,0.0,0.0,57,0.00,,CLR,0.16,VWS V14.01,2013-10-07 03:18:00,
2013-10-06 22:23:00,63.4,48.4,30.14,North,5,0.0,0.0,58,0.00,,CLR,0.16,VWS V14.01,2013-10-07 03:23:00,
2013-10-06 22:28:00,63.1,48.6,30.14,North,5,0.0,0.0,59,0.00,,CLR,0.16,VWS V14.01,2013-10-07 03:28:00,
2013-10-06 22:33:00,62.9,48.8,30.14,North,5,0.0,0.0,60,0.00,,CLR,0.16,VWS V14.01,2013-10-07 03:33:00,
2013-10-06 22:38:00,62.7,49.1,30.15,North,5,0.0,0.0,61,0.00,,CLR,0.16,VWS V14.01,2013-10-07 03:38:00,
2013-10-06 22:43:00,62.4,48.8,30.15,North,5,0.0,0.0,61,0.00,,CLR,0.16,VWS V14.01,2013-10-07 03:43:00,
2013-10-06 22:48:00,62.3,48.2,30.15,North,5,0.0,0.0,60,0.00,,CLR,0.16,VWS V14.01,2013-10-07 03:48:00,
2013-10-06 22:53:00,62.1,49.4,30.15,North,5,0.0,0.0,63,0.00,,CLR,0.16,VWS V14.01,2013-10-07 03:53:00,
2013-10-06 22:58:00,62.0,49.7,30.15,North,5,0.0,0.0,64,0.00,,CLR,0.16,VWS V14.01,2013-10-07 03:58:00,
2013-10-06 23:01:00,61.8,49.1,30.15,North,5,0.0,0.0,63,0.00,,CLR,0.16,VWS V14.01,2013-10-07 04:01:00,
2013-10-06 23:06:00,61.6,48.5,30.15,North,5,0.0,0.0,62,0.00,,CLR,0.16,VWS V14.01,2013-10-07 04:06:00,
2013-10-06 23:11:00,61.5,48.4,30.15,North,5,0.0,0.0,62,0.00,,CLR,0.16,VWS V14.01,2013-10-07 04:11:00,
2013-10-06 23:16:00,61.5,48.4,30.15,North,5,0.0,0.0,62,0.00,,CLR,0.16,VWS V14.01,2013-10-07 04:16:00,
2013-10-06 23:21:00,61.5,48.4,30.15,North,5,0.0,0.0,62,0.00,,CLR,0.16,VWS V14.01,2013-10-07 04:21:00,
2013-10-06 23:26:00,61.3,48.2,30.15,North,5,0.0,0.0,62,0.00,,CLR,0.16,VWS V14.01,2013-10-07 04:26:00,
2013-10-06 23:31:00,61.3,48.6,30.15,North,5,0.0,0.0,63,0.00,,CLR,0.16,VWS V14.01,2013-10-07 04:31:00,
2013-10-06 23:36:00,61.2,48.9,30.15,North,5,0.0,0.0,64,0.00,,CLR,0.16,VWS V14.01,2013-10-07 04:36:00,
2013-10-06 23:41:00,61.2,49.3,30.15,North,5,0.0,0.0,65,0.00,,CLR,0.16,VWS V14.01,2013-10-07 04:41:00,
2013-10-06 23:46:00,61.0,49.6,30.15,North,5,0.0,0.0,66,0.00,,CLR,0.16,VWS V14.01,2013-10-07 04:46:00,
2013-10-06 23:51:00,60.9,49.5,30.15,North,5,0.0,0.0,66,0.00,,CLR,0.16,VWS V14.01,2013-10-07 04:51:00,
2013-10-06 23:56:00,60.7,49.7,30.15,North,5,0.0,0.0,67,0.00,,CLR,0.16,VWS V14.01,2013-10-07 04:56:00,